Temp
11 11 12 12 12 11 11 11 11 11 10 10 10 10 10 10 10 11 12 12 12 13 13 14 15 15 16 15 17 17 17 16 16 16 16 16 16 16 16 15 15 16 16 16 17 18 17
10 11 11 11 12 11 11 10 10 10 10 10 9 9 9 9 10 11 11 12 13 13 13 14 14 14 14 13 16 16 16 17 16 16 16 16 16 16 15 15 15 15 15 15 16 16 16
10 10 11 11 11 11 11 11 10 10 10 9 9 9 9 9 11 11 11 11 12 12 13 13 14 14 13 16 16 16 16 16 16 15 16 15 15 16 15 15 15 14 16 16 16 15 17
10 11 10 10 10 10 11 11 10 9 9 9 9 9 9 9 11 11 11 11 12 12 12 13 14 13 14 16 16 15 15 16 15 16 16 16 15 15 15 15 14 15 15 17 17 16 16
9 9 9 10 10 10 10 10 10 9 9 9 9 9 9 9 10 10 11 11 11 12 13 13 14 12 14 15 15 15 15 15 16 15 16 15 15 14 14 15 15 14 17 15 16 15 16
8 8 8 8 9 9 9 9 8 8 8 8 8 9 9 8 9 9 10 11 12 12 12 13 12 12 15 15 15 14 14 15 15 15 15 15 14 13 13 15 16 15 15 14 15 16 16
8 8 8 8 8 8 8 7 7 8 8 7 7 7 8 8 9 10 11 12 12 11 10 11 12 10 14 13 13 13 13 14 14 15 14 12 14 14 14 13 14 13 13 14 14 15 14
7 7 7 7 7 7 8 8 8 7 7 8 8 8 8 9 9 10 10 10 7 6 4 11 12 9 11 11 9 12 13 13 13 14 12 13 13 14 12 12 12 13 13 13 14 14 14
6 6 6 6 6 6 6 6 6 6 7 7 7 7 7 8 9 9 9 7 6 5 4 7 9 9 11 11 10 12 12 13 13 12 12 13 14 12 12 13 13 13 13 13 14 14 13
5 5 4 5 5 5 5 6 6 6 6 6 6 6 7 8 8 8 7 6 6 6 6 8 10 11 11 11 11 13 13 13 12 12 11 11 12 12 12 12 12 11 13 13 13 13 14
4 3 4 5 5 5 5 5 5 5 6 5 5 6 6 7 6 7 7 6 6 6 9 12 11 12 12 12 12 12 13 12 12 12 12 13 12 12 12 13 12 13 13 13 13 13 12
4 4 4 4 4 4 5 5 5 5 5 5 5 5 6 6 6 6 6 6 7 7 7 10 11 11 11 11 12 12 12 12 12 11 11 11 11 12 13 13 13 13 13 11 10 11 12
3 3 3 3 4 4 4 4 4 4 5 4 4 5 5 5 6 6 6 7 6 6 9 10 11 11 10 11 11 11 12 11 12 12 11 11 11 11 11 12 12 12 12 12 11 11 12
2 2 2 3 3 3 3 3 4 4 4 4 3 4 4 5 5 6 6 5 4 8 7 9 10 11 10 11 11 11 10 11 10 11 10 11 12 12 12 13 13 12 12 12 11 12 13
1 2 2 2 2 2 2 2 3 3 4 4 4 4 3 5 5 5 5 3 6 6 8 7 9 9 9 10 11 10 9 10 11 11 12 10 11 12 12 13 13 11 11 12 11 10 10
1 1 1 1 1 1 1 1 2 2 3 3 3 3 3 4 4 4 3 5 5 6 7 7 8 9 9 9 10 10 10 10 10 10 10 11 10 11 12 12 12 13 13 11 10 10 10
-1 -1 -1 -1 -1 -0 0 1 1 1 2 2 2 2 2 4 4 3 2 3 4 6 6 6 7 7 8 8 9 9 10 10 10 10 9 10 9 11 10 12 13 12 11 10 11 10 10
-2 -2 -2 -2 -2 -1 -1 -1 -0 0 1 2 2 1 2 3 2 2 3 3 5 5 6 6 6 6 7 7 8 8 8 9 8 8 10 9 8 9 11 9 9 10 11 11 10 10 9
-2 -2 -2 -2 -2 -2 -2 -2 -1 -1 0 0 1 1 1 1 2 2 1 3 4 4 5 6 6 6 7 6 6 7 8 9 8 9 9 9 8 9 9 9 9 10 9 9 7 8 9
-3 -3 -3 -3 -3 -3 -3 -2 -2 -1 -1 -0 0 0 0 1 1 1 2 3 3 4 5 6 6 6 5 5 6 5 7 8 8 8 8 8 7 9 9 9 8 9 8 8 9 7 9
-3 -3 -3 -3 -3 -3 -3 -3 -2 -2 -1 -1 -1 -0 1 1 1 1 2 3 3 3 4 4 5 5 5 4 6 6 6 7 8 8 8 8 8 7 8 7 7 8 8 8 8 8 7
-4 -3 -3 -4 -3 -3 -3 -3 -2 -2 -2 -2 -1 -1 -1 -0 0 1 2 2 2 4 5 5 4 6 5 5 5 5 6 6 7 7 7 6 7 5 3 6 6 5 5 5 7 7 7
-3 -3 -3 -3 -4 -4 -3 -3 -3 -2 -2 -2 -2 -1 -1 0 1 1 2 3 3 4 3 4 5 5 4 5 5 5 6 6 7 7 6 6 6 5 6 6 6 5 4 5 7 7 7
-4 -4 -4 -4 -4 -4 -4 -4 -3 -3 -2 -3 -2 -2 -1 0 1 2 3 3 2 2 2 4 3 2 4 5 5 5 4 4 5 6 6 5 5 5 5 6 4 7 6 6 6 7 7
-4 -4 -5 -4 -4 -4 -4 -4 -4 -3 -3 -3 -3 -3 -2 -1 0 1 2 2 2 2 2 2 2 2 1 2 3 3 4 5 5 5 5 6 5 3 5 6 7 7 8 7 6 7 8
-5 -5 -5 -5 -4 -4 -4 -4 -4 -3 -3 -3 -3 -3 -2 -2 -0 1 2 1 1 2 2 1 1 2 1 1 2 3 4 5 5 5 5 5 5 4 3 4 4 7 7 6 7 6 6
-4 -5 -5 -4 -4 -4 -4 -4 -4 -4 -3 -3 -3 -3 -3 -2 -1 -0 0 1 1 1 1 1 1 1 1 1 3 3 4 2 3 5 5 4 3 3 4 4 6 6 6 6 6 7 5
-4 -4 -4 -4 -4 -4 -4 -4 -4 -4 -4 -4 -4 -3 -3 -3 -2 -1 -1 -0 0 -0 1 1 1 0 1 2 3 3 3 3 3 5 6 5 4 3 4 3 4 6 6 6 7 5 5
-4 -4 -4 -4 -4 -4 -4 -4 -4 -4 -4 -4 -4 -3 -3 -3 -3 -2 -2 -1 -1 0 -1 -0 0 1 2 2 2 3 3 3 4 4 5 4 5 5 4 5 6 6 6 6 5 4 4
Height
1557 1559 1559 1560 1560 1561 1561 1561 1560 1560 1559 1558 1555 1554 1551 1550 1549 1547 1545 1544 1540 1537 1533 1529 1525 1521 1518 1515 1510 1507 1506 1506 1506 1505 1503 1502 1501 1499 1502 1502 1500 1498 1497 1498 1496 1494 1494
1554 1555 1556 1556 1556 1557 1558 1558 1557 1557 1557 1556 1554 1551 1550 1548 1546 1544 1542 1541 1539 1534 1532 1528 1524 1520 1518 1516 1509 1507 1504 1503 1503 1503 1502 1501 1501 1500 1500 1502 1501 1498 1496 1495 1493 1492 1492
1550 1552 1551 1551 1551 1553 1553 1553 1554 1553 1553 1553 1551 1549 1546 1544 1542 1541 1539 1538 1536 1533 1529 1525 1521 1516 1513 1510 1507 1505 1504 1502 1501 1502 1502 1501 1500 1500 1499 1499 1500 1499 1497 1492 1490 1491 1489
1546 1547 1548 1547 1547 1547 1547 1548 1549 1549 1549 1548 1547 1547 1544 1542 1539 1538 1536 1534 1531 1528 1527 1522 1518 1514 1507 1504 1505 1505 1504 1503 1503 1502 1501 1501 1500 1499 1499 1497 1498 1498 1497 1494 1489 1489 1489
1541 1543 1544 1543 1544 1543 1542 1542 1544 1545 1545 1545 1544 1544 1542 1540 1537 1534 1532 1529 1526 1523 1519 1519 1515 1513 1504 1504 1502 1503 1503 1502 1502 1501 1501 1501 1501 1500 1499 1499 1496 1499 1496 1499 1492 1492 1491
1537 1538 1540 1541 1540 1540 1539 1539 1539 1540 1542 1541 1540 1539 1538 1537 1535 1531 1529 1527 1521 1517 1516 1514 1512 1513 1504 1504 1502 1499 1499 1499 1499 1500 1500 1499 1500 1501 1503 1499 1498 1498 1498 1498 1496 1490 1490
1533 1534 1535 1536 1538 1537 1537 1538 1539 1540 1538 1538 1538 1538 1536 1534 1533 1529 1527 1524 1523 1516 1515 1515 1512 1508 1500 1497 1495 1494 1496 1496 1496 1497 1499 1499 1500 1499 1497 1500 1499 1501 1501 1501 1496 1491 1492
1530 1530 1532 1533 1535 1535 1536 1536 1536 1537 1539 1536 1535 1538 1536 1533 1531 1528 1525 1524 1527 1528 1511 1506 1501 1497 1494 1496 1493 1490 1492 1495 1493 1494 1497 1501 1499 1495 1498 1499 1499 1499 1501 1497 1493 1490 1491
1527 1528 1528 1530 1531 1531 1532 1533 1534 1534 1535 1533 1532 1533 1533 1531 1529 1527 1525 1526 1525 1525 1518 1497 1495 1495 1494 1493 1490 1489 1490 1491 1492 1494 1495 1495 1493 1493 1494 1496 1496 1494 1496 1496 1493 1489 1489
1521 1525 1527 1528 1528 1529 1529 1531 1532 1532 1533 1531 1531 1531 1531 1529 1530 1527 1528 1528 1527 1526 1520 1499 1495 1494 1492 1494 1489 1488 1487 1492 1494 1494 1495 1496 1492 1492 1492 1492 1491 1496 1485 1487 1491 1491 1488
1518 1519 1522 1525 1527 1528 1528 1528 1530 1532 1530 1528 1529 1529 1529 1527 1528 1529 1529 1528 1528 1527 1523 1495 1492 1494 1494 1494 1492 1488 1488 1489 1490 1492 1495 1491 1491 1490 1490 1486 1488 1485 1482 1486 1487 1491 1494
1515 1515 1519 1520 1522 1523 1525 1525 1527 1527 1528 1529 1527 1527 1528 1529 1527 1528 1526 1527 1528 1533 1520 1495 1491 1491 1493 1492 1492 1489 1487 1488 1488 1492 1493 1490 1489 1489 1484 1482 1484 1484 1484 1490 1493 1493 1494
1511 1511 1516 1517 1518 1520 1521 1522 1522 1524 1525 1526 1526 1526 1526 1527 1527 1526 1525 1526 1534 1531 1506 1498 1494 1492 1494 1491 1490 1490 1490 1488 1490 1492 1492 1489 1486 1484 1483 1485 1483 1485 1488 1493 1493 1493 1485
1507 1509 1510 1513 1514 1515 1517 1518 1518 1519 1521 1524 1522 1524 1524 1525 1526 1524 1525 1530 1535 1512 1510 1500 1495 1493 1494 1490 1490 1489 1491 1491 1489 1489 1492 1492 1489 1482 1480 1480 1480 1483 1485 1489 1493 1487 1479
1502 1503 1506 1508 1510 1510 1512 1515 1514 1515 1515 1520 1520 1519 1521 1524 1525 1524 1524 1531 1514 1513 1508 1506 1497 1494 1494 1489 1489 1489 1491 1488 1485 1486 1487 1492 1489 1480 1477 1477 1480 1485 1484 1481 1486 1493 1489
1498 1499 1502 1502 1504 1506 1507 1509 1510 1511 1512 1514 1516 1516 1516 1521 1522 1524 1526 1513 1509 1508 1509 1506 1503 1496 1497 1492 1493 1491 1486 1483 1483 1483 1483 1485 1486 1479 1477 1478 1480 1479 1479 1485 1487 1488 1485
1494 1495 1497 1498 1499 1501 1500 1501 1506 1507 1507 1511 1513 1512 1511 1516 1518 1520 1518 1511 1507 1503 1507 1507 1506 1499 1496 1495 1494 1492 1486 1483 1482 1482 1483 1483 1485 1482 1482 1478 1476 1480 1480 1483 1483 1483 1480
1491 1491 1493 1495 1496 1497 1496 1495 1499 1503 1505 1505 1509 1510 1508 1511 1516 1510 1505 1504 1503 1501 1502 1504 1503 1500 1498 1496 1494 1492 1488 1483 1482 1482 1481 1481 1485 1482 1477 1480 1479 1477 1477 1477 1481 1479 1483
1489 1490 1491 1491 1492 1492 1492 1494 1496 1498 1501 1504 1503 1505 1505 1509 1503 1503 1503 1500 1500 1499 1498 1498 1497 1494 1493 1493 1495 1487 1484 1482 1480 1480 1479 1480 1483 1479 1480 1480 1478 1476 1479 1479 1483 1483 1475
1485 1487 1488 1489 1489 1489 1488 1490 1493 1494 1497 1499 1499 1500 1500 1499 1498 1498 1495 1496 1495 1493 1494 1494 1492 1492 1492 1491 1489 1487 1484 1480 1478 1478 1477 1478 1481 1477 1476 1475 1479 1477 1478 1478 1477 1482 1473
1480 1483 1484 1485 1485 1487 1486 1486 1488 1492 1493 1495 1494 1491 1491 1490 1490 1494 1492 1489 1486 1489 1489 1489 1488 1487 1488 1490 1485 1485 1484 1481 1478 1476 1477 1477 1477 1480 1476 1477 1478 1474 1472 1473 1472 1470 1472
1478 1478 1480 1481 1481 1482 1483 1484 1486 1489 1490 1491 1489 1490 1488 1489 1487 1486 1485 1484 1485 1484 1484 1483 1483 1482 1484 1485 1485 1483 1482 1480 1476 1475 1475 1476 1473 1481 1486 1475 1475 1474 1473 1474 1469 1466 1461
1473 1474 1473 1475 1477 1478 1479 1480 1482 1485 1487 1486 1487 1486 1486 1483 1483 1484 1477 1474 1477 1478 1481 1479 1479 1479 1481 1480 1480 1478 1476 1475 1474 1473 1473 1474 1474 1477 1470 1473 1471 1467 1467 1462 1454 1453 1456
1468 1469 1470 1471 1472 1474 1474 1475 1479 1481 1482 1483 1484 1487 1486 1481 1480 1477 1476 1476 1476 1474 1476 1474 1476 1478 1477 1476 1475 1472 1469 1467 1467 1467 1469 1472 1471 1472 1475 1472 1473 1453 1453 1453 1452 1449 1448
1463 1464 1464 1465 1466 1469 1470 1472 1473 1474 1477 1478 1481 1484 1485 1479 1477 1475 1473 1470 1469 1470 1469 1470 1468 1470 1474 1476 1475 1472 1467 1463 1460 1460 1462 1464 1467 1475 1468 1461 1450 1448 1444 1446 1447 1441 1439
1457 1458 1459 1459 1461 1461 1463 1466 1468 1469 1472 1474 1476 1480 1480 1479 1469 1471 1470 1470 1468 1465 1464 1461 1462 1465 1470 1472 1473 1469 1463 1455 1454 1456 1457 1462 1465 1469 1469 1463 1455 1444 1443 1444 1443 1439 1439
1450 1451 1452 1452 1453 1455 1457 1459 1461 1464 1467 1469 1470 1474 1476 1471 1465 1469 1467 1466 1466 1463 1460 1458 1458 1460 1464 1466 1465 1462 1460 1462 1461 1454 1455 1461 1465 1462 1457 1457 1445 1441 1440 1440 1443 1437 1435
1441 1443 1444 1445 1447 1449 1451 1453 1455 1458 1460 1464 1464 1468 1469 1467 1462 1463 1462 1462 1461 1460 1458 1455 1456 1455 1458 1459 1459 1458 1457 1458 1459 1449 1447 1449 1455 1459 1456 1455 1447 1435 1439 1440 1434 1432 1433
1432 1435 1437 1438 1441 1443 1444 1446 1449 1451 1454 1457 1459 1461 1465 1463 1456 1455 1455 1453 1456 1457 1458 1451 1449 1446 1448 1453 1455 1453 1454 1452 1448 1449 1444 1448 1442 1444 1445 1435 1432 1432 1433 1433 1433 1431 1429
Wind_Speed
16 17 17 18 18 19 19 20 20 21 21 22 21 23 24 25 26 25 25 27 28 30 30 31 32 33 33 24 8 10 8 10 11 11 11 9 6 4 3 3 4 3 0 4 7 15 11
18 19 19 20 20 21 21 20 21 21 21 21 23 24 25 27 28 26 26 27 29 32 31 31 32 32 27 13 13 11 12 13 10 10 9 7 2 4 2 2 3 2 4 10 7 6 5
20 20 21 21 22 22 23 22 21 20 19 21 23 25 23 26 26 28 29 28 34 33 32 33 32 30 27 15 13 9 7 8 7 8 11 6 4 3 2 3 2 4 5 5 1 2 3
20 21 21 21 21 21 22 22 23 21 21 21 23 25 24 26 28 30 31 32 31 33 34 32 30 26 13 10 4 2 4 6 8 9 9 2 3 3 1 4 3 2 1 2 1 5 2
19 18 17 16 15 14 14 15 18 19 19 21 24 25 26 28 29 29 32 34 33 32 30 27 21 16 12 3 5 1 4 12 13 5 7 3 2 1 1 1 1 3 3 2 3 2 3
17 16 15 14 12 10 9 8 7 10 14 16 19 20 24 25 27 29 31 32 31 19 15 14 6 9 2 2 9 21 24 18 13 8 5 3 1 1 2 1 4 2 2 2 5 1 3
17 15 14 12 11 10 8 6 8 10 10 11 14 16 18 21 28 30 31 31 14 6 4 12 29 24 40 27 13 17 18 14 9 4 3 2 2 6 6 4 1 2 3 8 9 9 4
16 15 15 14 15 15 16 16 15 15 17 17 19 21 21 20 21 22 19 10 8 11 14 27 27 31 33 29 14 19 11 6 5 6 4 1 7 10 1 3 4 4 8 10 9 8 5
17 17 16 16 13 11 10 9 9 9 10 11 11 13 15 16 17 14 10 7 7 11 8 11 10 10 4 2 4 3 2 5 4 5 7 7 5 5 6 4 9 9 9 8 9 4 2
16 14 11 12 11 9 8 8 7 7 8 9 10 11 13 14 8 14 7 4 7 10 4 6 3 2 2 3 2 1 2 2 0 4 3 5 3 4 4 7 8 5 10 12 8 4 6
14 13 14 16 15 14 12 11 10 10 10 10 10 10 11 11 12 13 7 5 7 5 5 0 2 1 2 3 4 2 2 5 3 3 3 3 2 3 4 3 4 3 2 3 2 2 2
13 12 15 16 14 14 17 15 13 13 13 13 11 9 10 12 13 12 6 4 4 2 8 4 1 1 1 2 2 1 3 3 2 2 1 5 1 4 5 3 3 4 3 5 3 2 6
13 14 15 16 17 18 17 15 15 15 15 16 14 11 10 11 11 12 4 1 1 4 4 5 2 2 1 2 2 1 1 2 3 1 1 2 3 3 3 2 2 1 2 3 2 3 5
14 14 16 17 17 17 17 18 17 16 15 17 15 14 13 11 9 9 1 3 4 1 6 4 4 2 3 1 3 0 0 2 3 2 1 1 3 3 4 3 2 6 7 4 5 4 7
18 18 18 18 18 18 18 18 17 17 17 17 16 16 18 13 8 7 4 2 5 5 3 7 7 3 3 3 4 2 4 3 4 9 6 4 4 3 2 1 2 3 4 2 5 1 4
17 18 20 21 21 21 20 18 17 17 16 16 18 20 22 15 10 6 1 6 5 3 3 3 2 1 2 3 1 2 4 2 2 6 2 3 4 3 2 1 1 4 4 2 1 4 6
12 13 14 15 16 18 19 19 18 16 15 15 16 8 7 14 15 9 5 7 4 9 6 3 3 3 2 2 2 3 3 2 0 2 5 3 4 3 1 4 6 2 2 2 2 3 6
11 11 12 13 13 14 13 15 17 15 13 14 13 3 9 19 7 5 9 6 6 5 7 5 4 6 6 4 5 3 4 4 1 2 3 2 3 4 6 0 3 2 3 5 3 6 3
10 10 10 11 11 12 12 11 11 13 10 9 7 9 9 24 6 9 3 3 11 6 5 4 5 7 3 4 5 8 7 4 2 4 4 4 3 3 2 1 1 3 2 2 2 1 10
14 15 15 13 11 11 10 10 9 10 13 12 5 3 9 24 15 7 8 8 8 12 12 11 9 3 2 3 5 4 3 3 4 4 5 4 3 4 7 3 1 7 5 6 6 4 8
12 12 12 12 12 12 11 9 10 9 12 13 6 5 6 2 8 8 9 5 12 8 11 13 4 11 9 6 10 9 4 4 4 3 4 4 5 4 6 8 7 13 15 12 16 13 11
11 11 13 12 13 13 9 9 9 10 10 16 4 3 5 3 6 14 13 9 15 6 6 5 13 10 5 9 8 9 5 4 5 1 4 2 4 3 4 7 11 13 10 10 14 18 19
14 14 14 15 15 14 15 12 10 10 12 10 13 13 10 5 3 3 3 13 16 14 10 22 14 9 9 9 13 21 24 23 14 5 7 5 5 4 11 4 5 12 11 17 17 16 16
16 18 18 17 17 16 15 16 16 14 15 17 18 11 3 3 6 5 8 11 14 20 9 9 10 6 5 6 15 12 14 14 14 11 10 6 4 2 7 5 11 4 3 9 12 12 15
19 21 20 20 20 20 18 17 18 18 17 20 20 15 8 4 8 10 10 9 18 23 20 22 19 20 18 24 6 6 4 3 7 9 11 7 3 4 7 9 15 14 11 4 7 7 7
23 23 22 19 20 19 20 20 19 21 18 19 21 19 12 6 9 13 10 8 9 5 5 12 15 14 12 3 4 5 6 6 5 3 3 7 5 6 2 6 8 3 3 4 3 8 8
24 23 22 23 22 22 23 23 23 21 24 22 21 18 19 7 19 18 9 5 4 5 3 2 4 6 18 5 6 6 4 0 2 3 4 3 3 10 9 8 7 9 4 2 6 3 8
26 24 24 23 23 22 22 22 22 22 23 24 24 22 20 12 22 26 21 14 8 5 4 1 4 5 3 5 4 4 4 4 6 8 7 10 6 5 4 7 9 7 1 4 2 4 9
32 28 27 26 25 23 21 21 21 21 22 23 25 22 20 24 17 12 17 26 34 27 19 6 3 4 9 3 3 3 4 3 5 4 4 5 6 4 7 5 3 6 13 17 21 18 16
Wind_Direction
257 262 267 270 274 277 280 284 287 293 298 300 304 309 311 310 316 319 316 326 329 329 331 331 334 336 337 326 307 314 310 315 311 314 322 341 6 25 348 310 311 198 296 288 294 297 300
259 265 271 274 278 278 278 282 288 290 291 293 302 306 310 310 311 318 318 323 328 325 324 325 328 329 327 305 313 320 317 316 312 316 309 303 304 332 278 267 293 286 282 281 277 270 257
264 268 270 273 277 277 277 280 282 284 287 296 299 304 303 306 311 315 317 319 322 321 319 322 322 321 314 300 311 320 359 20 17 349 323 320 274 273 320 292 307 297 299 308 191 328 194
266 271 275 278 280 280 280 280 279 279 285 288 286 296 299 303 310 310 311 313 314 314 315 319 319 312 285 295 308 32 30 25 352 331 340 325 253 284 263 303 351 316 11 313 41 352 24
262 268 274 276 281 282 283 283 283 282 276 282 290 292 294 299 300 304 307 308 313 315 310 315 313 310 292 322 152 148 35 347 317 316 330 250 237 291 65 40 271 32 283 280 311 355 332
258 261 268 275 279 284 286 284 286 287 288 284 283 288 293 299 306 309 309 314 317 315 303 307 298 331 252 254 270 288 290 310 274 289 279 220 255 35 29 160 278 290 271 249 268 236 337
250 254 257 264 271 279 288 304 299 293 296 304 307 306 305 308 312 318 321 329 330 314 320 291 286 272 281 285 295 278 292 288 248 236 212 37 229 251 244 233 236 287 268 285 280 270 271
245 248 255 265 275 283 286 284 282 283 290 292 299 307 315 321 324 327 333 354 355 308 302 299 284 271 272 281 282 301 281 217 181 204 130 74 236 245 155 174 219 261 284 274 280 287 230
253 257 260 265 267 272 280 284 285 291 295 298 305 308 314 320 326 334 350 10 340 325 276 293 275 282 300 264 231 340 140 193 199 179 191 211 240 132 185 241 264 259 255 260 271 305 251
243 248 257 258 258 266 271 274 282 295 299 302 306 313 321 332 339 340 338 346 317 323 297 283 286 268 229 246 261 335 154 181 47 240 204 244 269 234 220 236 223 259 230 236 251 220 269
241 247 243 252 262 264 266 266 278 285 288 292 299 314 326 344 348 339 323 330 312 326 311 213 195 210 265 235 310 169 194 170 191 189 153 259 202 198 220 208 177 242 86 168 175 223 308
242 247 250 250 251 260 262 257 263 269 277 278 281 297 321 335 344 342 325 305 320 29 246 328 333 212 224 242 275 246 181 176 140 168 269 251 252 239 226 231 209 144 91 54 61 110 257
252 252 254 254 255 256 255 253 253 261 272 268 271 278 299 317 331 337 329 64 20 189 340 337 348 26 310 280 284 234 234 152 209 267 300 303 233 271 199 229 244 201 298 292 256 206 263
259 259 258 262 263 264 265 258 256 257 261 263 265 271 280 294 316 325 313 60 215 224 274 310 336 284 235 202 249 82 103 281 232 147 150 265 281 214 167 219 217 196 201 204 248 253 284
257 257 260 261 260 261 263 266 262 259 255 259 263 261 262 283 286 289 160 181 218 206 293 329 320 271 294 262 211 183 223 225 224 183 202 188 254 280 197 140 202 155 191 198 251 254 263
260 261 261 259 259 260 261 264 262 259 257 252 256 265 257 268 266 240 152 231 220 224 1 1 252 317 295 310 251 212 212 182 237 202 226 223 270 233 276 137 254 210 136 171 167 259 263
259 260 265 267 267 263 260 258 259 258 253 250 247 252 251 230 234 190 221 224 265 258 244 215 273 284 294 301 246 251 276 290 338 217 186 179 205 245 261 197 221 188 198 111 175 205 255
259 264 271 273 271 269 273 262 254 252 253 243 237 229 211 190 172 211 227 192 221 229 246 261 235 239 245 257 268 266 251 232 314 257 207 181 174 212 214 237 280 268 229 183 214 248 220
255 267 278 280 282 270 268 276 265 241 236 235 226 239 210 199 221 216 240 240 232 223 208 213 244 210 212 236 243 221 231 222 277 206 210 174 219 243 231 226 187 231 201 175 94 74 236
260 266 272 279 283 285 280 256 267 250 221 228 205 215 204 205 221 244 209 221 228 222 234 233 254 234 253 253 212 278 268 265 212 198 184 164 182 232 259 259 274 266 228 212 206 221 270
265 271 266 259 264 277 287 267 244 254 226 231 235 220 191 225 214 211 203 236 221 222 215 202 247 227 227 259 253 247 245 276 248 231 200 189 229 210 253 247 242 256 257 238 233 241 230
257 263 271 277 272 262 266 276 257 248 234 232 246 240 195 279 287 209 198 211 235 229 215 220 234 240 236 245 242 267 261 213 238 221 207 208 237 154 281 256 245 253 235 242 246 240 248
265 269 273 279 275 266 257 251 252 242 232 237 251 256 291 222 205 229 232 222 228 234 247 242 250 274 264 261 277 264 256 261 258 218 202 179 179 189 275 244 281 274 218 229 245 249 246
265 266 266 272 280 276 264 253 246 242 237 246 250 264 270 265 228 231 259 250 243 236 225 234 199 243 269 289 320 306 257 238 241 237 200 195 189 169 267 257 259 265 210 223 238 252 242
269 272 270 265 262 264 267 263 247 243 237 245 245 240 240 260 255 275 266 272 277 261 250 248 237 236 276 285 303 295 246 215 220 220 213 212 134 238 240 243 272 289 281 228 203 282 268
266 267 268 266 266 261 261 259 257 242 239 244 244 238 237 260 250 248 271 291 276 257 238 245 252 252 254 177 177 239 250 220 196 190 30 174 211 242 213 255 262 238 172 338 169 281 18
266 266 260 259 261 260 258 258 254 250 243 243 248 237 235 243 260 268 258 254 249 220 244 225 176 181 204 176 204 231 242 325 210 201 156 130 206 221 221 243 263 250 264 173 231 276 344
262 267 264 260 261 261 260 255 253 250 244 239 248 240 231 247 262 257 263 263 261 303 268 240 171 186 135 184 198 188 212 185 216 214 197 203 197 203 215 227 262 192 161 215 267 302 310
257 261 262 258 257 259 260 252 249 248 241 232 240 241 236 240 252 259 260 255 259 265 257 256 267 214 169 142 212 163 208 210 213 246 226 242 210 196 210 217 170 253 232 285 291 293 300